TimeMDT,TemperatureF,Dew PointF,Humidity,Sea Level PressureIn,VisibilityMPH,Wind Direction,Wind SpeedMPH,Gust SpeedMPH,PrecipitationIn,Events,Conditions,WindDirDegrees,DateUTC
12:53 AM,69.1,53.1,57,29.95,10.0,SW,4.6,-,N/A,,Clear,230,2013-09-06 06:53:00
1:53 AM,64.0,53.1,67,29.95,10.0,Calm,Calm,-,N/A,,Clear,0,2013-09-06 07:53:00
2:53 AM,63.0,53.1,70,29.96,10.0,WNW,3.5,-,N/A,,Clear,300,2013-09-06 08:53:00
3:53 AM,63.0,53.1,70,29.94,10.0,NW,4.6,-,N/A,,Clear,310,2013-09-06 09:53:00
4:53 AM,64.9,53.1,65,29.94,10.0,NW,3.5,-,N/A,,Clear,310,2013-09-06 10:53:00
5:53 AM,68.0,52.0,56,29.92,10.0,West,4.6,-,N/A,,Clear,280,2013-09-06 11:53:00
6:53 AM,73.0,48.9,42,29.92,10.0,West,4.6,-,N/A,,Clear,280,2013-09-06 12:53:00
7:53 AM,75.0,46.9,37,29.94,10.0,WNW,6.9,-,N/A,,Clear,290,2013-09-06 13:53:00
8:53 AM,75.9,48.0,37,29.94,10.0,NW,4.6,-,N/A,,Clear,320,2013-09-06 14:53:00
9:53 AM,82.0,51.1,34,29.96,10.0,ENE,8.1,-,N/A,,Clear,60,2013-09-06 15:53:00
10:53 AM,82.0,52.0,35,29.97,10.0,East,6.9,-,N/A,,Clear,80,2013-09-06 16:53:00
11:53 AM,81.0,53.1,38,29.98,10.0,East,4.6,-,N/A,,Clear,90,2013-09-06 17:53:00
12:53 PM,81.0,55.9,42,29.96,10.0,ESE,6.9,-,N/A,,Partly Cloudy,120,2013-09-06 18:53:00
1:53 PM,80.1,53.1,39,29.99,10.0,SSW,6.9,19.6,N/A,,Mostly Cloudy,210,2013-09-06 19:53:00
2:53 PM,70.0,50.0,49,30.04,10.0,NE,10.4,-,0.00,,Overcast,50,2013-09-06 20:53:00
3:53 PM,71.1,53.1,53,30.01,10.0,NNW,3.5,-,0.00,Rain,Light Rain,340,2013-09-06 21:53:00
4:53 PM,72.0,53.1,51,29.98,10.0,NNW,3.5,-,0.00,,Overcast,330,2013-09-06 22:53:00
5:53 PM,78.1,54.0,43,29.94,10.0,NW,3.5,-,N/A,,Clear,320,2013-09-06 23:53:00
6:53 PM,77.0,55.0,47,29.93,10.0,Calm,Calm,-,N/A,,Clear,0,2013-09-07 00:53:00
7:53 PM,73.0,54.0,51,29.93,10.0,East,3.5,-,N/A,,Clear,80,2013-09-07 01:53:00
8:53 PM,66.0,57.0,73,29.96,10.0,NNW,3.5,-,N/A,,Clear,340,2013-09-07 02:53:00
9:53 PM,64.9,54.0,68,29.96,10.0,Calm,Calm,-,N/A,,Mostly Cloudy,0,2013-09-07 03:53:00
10:53 PM,66.9,53.1,61,29.97,10.0,Calm,Calm,-,N/A,,Scattered Clouds,0,2013-09-07 04:53:00
11:53 PM,61.0,52.0,72,29.98,10.0,North,5.8,-,N/A,,Clear,350,2013-09-07 05:53:00